Regional Weather Roundup
Issued by NWS Charleston, SC

Current Version | Previous Version | Graphics & Text | Print | Product List | Glossary On
Versions: 1 2 3 4 5 6 7 8 9 10 11 12 13 14 15 16 17 18 19 20 21 22 23 24 25 26 27 28 29 30 31 32 33 34 35 36 37 38 39 40 41 42 43 44 45 46 47 48 49 50
897
ASUS42 KCHS 110712
RWRCHS

REGIONAL WEATHER ROUNDUP
NATIONAL WEATHER SERVICE CHARLESTON SC
200 AM EST SUN DEC 11 2016

NOTE: "FAIR" INDICATES FEW OR NO CLOUDS BELOW 12,000 FEET WITH NO
SIGNIFICANT WEATHER AND/OR OBSTRUCTIONS TO VISIBILITY.

NOT ALL STATIONS ARE QUALITY CONTROLLED. USE DATA WITH CAUTION...
ESPECIALLY DEWPOINT OBSERVATIONS.

SCZ027-030-031-034>040-042>050-110800-
...SOUTHEAST SOUTH CAROLINA...

CITY           SKY/WX    TMP DP  RH WIND       PRES   REMARKS
N CHARLESTON   CLEAR     34  23  64 NE5       30.47F WCI  30
WATERFRONT PRK   N/A     41  31  67 NE8       30.46F
MOUNT PLEASANT NOT AVBL
JOHNS ISLAND   FAIR      36  27  69 N6        30.47F WCI  31
PINOPOLIS        N/A     37  27  65 E6        30.42S WCI  33
MONCKS CORNER  FAIR      28  23  80 CALM      30.48F
SUMMERVILLE    FAIR      32  28  86 CALM      30.49F
BEAUFORT MCAS  PTCLDY    38  27  64 NE7       30.46F WCI  33
BEAUFORT ARPT  PTSUNNY   41  32  70 NE12      30.45F
HILTON HEAD IS PTCLDY    45  32  61 N10G16    30.45F
WALTERBORO     MOSUNNY   34  27  75 CALM      30.49S
ALLENDALE      FAIR      32  27  80 CALM      30.46F

...SOUTHERN MIDLANDS AND PEE DEE...

CITY           SKY/WX    TMP DP  RH WIND       PRES   REMARKS
GEORGETOWN     NOT AVBL
KINGSTREE      FAIR      28  21  74 E3        30.50S
ORANGEBURG     CLEAR     29  25  85 CALM      30.48S
BARNWELL       NOT AVBL
AIKEN          NOT AVBL
MANNING        FAIR      28  23  80 CALM      30.49S
COLUMBIA       CLEAR     27  22  81 W3        30.48F
SUMTER         CLEAR     26  21  80 N3        30.46F
FLORENCE       CLEAR     27  24  89 NE5       30.50S WCI  22
MYRTLE BEACH   CLEAR     32  21  64 N5        30.52S WCI  27
N MYRTLE BEACH CLEAR     30  24  78 NE3       30.49F

$$

GAZ063-065-086>088-099>101-113>116-118-119-134>141-150-110800-
...SOUTHEAST GEORGIA...

CITY           SKY/WX    TMP DP  RH WIND       PRES   REMARKS
SAVANNAH ARPT  CLOUDY    40  27  59 NE9       30.44F WCI  34
HUNTER AAF     CLEAR     42  32  69 NE9       30.40F
FORT STEWART   CLOUDY    41  28  60 CALM      30.41S HAZE
STATESBORO     PTCLDY    37  28  70 CALM      30.46S
SYLVANIA       CLOUDY   N/A N/A N/A E6        30.46F
CLAXTON        PTSUNNY   38  30  72 NE7       30.44F WCI  33

...CSRA...CENTRAL AND FAR SOUTHEAST GEORGIA...

CITY           SKY/WX    TMP DP  RH WIND       PRES   REMARKS
THOMSON        CLEAR     28  28  99 CALM      30.49F
AUGUSTA-BUSH   CLEAR     27  23  85 CALM      30.47F
AUGUSTA-DANIEL CLEAR     36  21  54 E5        30.46F WCI  32
SWAINSBORO     PTSUNNY   37  27  65 E6        30.46S WCI  33
VIDALIA        MOCLDY    37  32  81 NE6       30.45S WCI  33
EASTMAN        PTSUNNY   39  14  36 E5        30.46F WCI  36
HAZLEHURST     FAIR      38  29  70 NE6       30.42S WCI  34
ALMA           CLOUDY    41  30  65 VRB6      30.41S
WAYCROSS       CLOUDY    45  36  72 NE6       30.39F
JESUP          FAIR      41  36  81 NE6       30.41F
BAXLEY         MOCLDY    41  32  70 NE8       30.42R
BRUNSWICK      CLEAR     45  41  87 N5        30.39S
SAINT SIMONS   PTCLDY    46  42  86 N7        30.37F

$$

SCZ027-028-034-036>038-045-046-048>050-GAZ119-141-110800-
...LAKE AND SUPPLEMENTAL COASTAL OBSERVATIONS...

STATION/POSITION TIME  TEMP    WIND        PRES    WAVE   SWELL
                       AIR SEA DIR/SP/G            HT/PER HT/PER/DIR
                 (UTC) (F)     (DEG/KT/KT) (MB)    (FT/S) (FT/S/D)
WINYAH BAY       0545   38      10/  5     1032.0
LAKE MURRAY      0620   38      CALM  /  4 1031.2
ACE BASIN NERRS  0545   35        CALM     1032.0
FORT PULASKI     0648      58   50/ 15/ 20 1030.3F
SAPELO ISLAND    0600   47      10/  9     1029.0

$$

ANZ835-935-AMZ111-154-330-350-352-354-370-450-454-472-110800-
...C-MAN AND BUOY OBSERVATIONS...

STATION/POSITION TIME  TEMP    WIND        PRES    WAVE   SWELL
                       AIR SEA DIR/SP/G            HT/PER HT/PER/DIR
                 (UTC) (F)     (DEG/KT/KT) (MB)    (FT/S) (FT/S/D)
BUOY 41004       0650   54 75   70/ 12/ 16 1030.6F   2/ 4   2/ 80/ 8
BUOY 41008       0650   60 62   60/ 19/ 21 1027.9F   5/ 5
FOLLY BEACH CMAN 0600   45      40/ 14/ 15 1032.2F
CAPERS NEARSHORE 0608   47 59   50/ 14/ 17 1031.7F
FRIPP NEARSHORE  0608   51 59   60/ 17/ 23 1030.9F


STATION/POSITION TIME  TEMP    WIND        PRES    WAVE   SWELL
                       AIR SEA DIR/SP/G            HT/PER HT/PER/DIR
                 (UTC) (F)     (DEG/KT/KT) (MB)    (FT/S) (FT/S/D)
5E ST. MARYS GA  0700      63                N/A     5/ 6
FRYING PAN BUOY  0650   51 72   40/ 10/ 14 1032.0F   2/ 4   2/ 70/ 7
BUOY 41025       0650   45 76   20/ 10/ 17 1032.6F   4/ 8   3/ 40/ 8
CAPE LOOKOUT NC  0600   38     360/  7/  8 1032.8F
BUOY 41002       0650   60 73   30/  8/ 12 1030.1F   4/ 9   3/ 40/ 9
BUOY 41010       NOT AVBL
ST AUGUSTINE FL  0700   66 64  140/ 13/ 15 1027.1F


$$




USA.gov is the U.S. government's official web portal to all federal, state and local government web resources and services.